Weather in Klyuchi

Russia / Ryazan Oblast     54°15′59″N   42°10′13″E
temp.,
°C
wind,
m/s
gust,
m/s
humid.,
%
clouds,
%
prec.,
mm/h
press.,
hPa
HPBL,
m
3 march, wed
wed300:00−4wnw4109586 0.0 1007266
03:00−2nw599391 0.1 1008556
06:00−3nnw51087100 0.5 1009832
09:00−6nw6119183 0.5 1011530
12:00−3nw5108698 0.0 1013703
15:00−2nw6108099 0.1 10131059
18:00−5w499173 0.0 1012243
21:00−3wsw4119584 0.1 1012458
4 march, thu
thu400:00−2wsw6129399 0.1 1009641
03:00−2wsw61391100 0.2 1007748
06:00−2wsw71392100 0.1 1004751
09:000wsw91596100 1.3 1002993
12:000w81489100 0.4 10011027
15:00+1wsw71289100 0.4 1002954
18:000wsw4998100 0.8 1001562
21:00−2n1398100 4.3 1001169
5 march, fri
fri500:00−3ene1298100 2.3 100086
03:00−3n2497100 4.0 999203
06:00−5n3696100 0.7 1001258
09:00−6nnw3694100 0.7 1004276
12:00−3nw239089 0.0 1006447
15:00−3wnw348690 0.1 1008630
18:00−6wsw239194 0.1 100940
21:00−7sw499688 0.2 1012306
6 march, sat
sat600:00−10w379248 0.0 1012159
03:00−12w359568 0.0 1013105
06:00−13wnw349768 0.0 101468
09:00−11nw259571 0.0 1015194
12:00−7nw358980 0.0 1015528
15:00−6nw468590 0.1 1015850
18:00−11nw349091 0.1 101582
21:00−14nw228957 0.1 101620
7 march, sun
sun700:00−15w23920 0.0 101639
03:00−16sw35920 0.0 1015102
06:00−15ssw5119121 0.0 1012247
09:00−9ssw8168258 0.0 1009631
12:00−6sw91788100 0.3 10041191
15:00−4sw101792100 1.8 9991365
18:00−3sw91794100 1.9 9961293
21:00−5wnw2589100 3.9 995296